O3B FM19

Last updated on Sat Jul 18 2026 00:03:21 GMT+0000 (Coordinated Universal Time)

1 44113U 19020B 26197.22314243 -.00000024 00000+0 00000+0 0 9996 2 44113 0.0665 346.3645 0005369 122.3099 251.3799 5.00115985132895
UTC large
Height (km)
Speed (km/s)
/
Latitude / Longitude
Inclination (degrees)
Orbital Period (minutes)
Azimuth
Elevation
Range (km)
Doppler Factor

Next 0 passes for location: London (51.5072 / 0.1276)

No passes found over London.
O3B FM19